Regional Weather Roundup
Issued by NWS Kansas City/Pleasant Hill, MO

Home | Current Version | Previous Version | Graphics & Text | Print | Product List | Glossary Off
Versions: 1 2 3 4 5 6 7 8 9 10 11 12 13 14 15 16 17 18 19 20 21 22 23 24 25 26 27 28

000
ASUS43 KEAX 220410
RWREAX

WEATHER ROUNDUP FOR EASTERN KANSAS AND NORTHWEST MISSOURI
NATIONAL WEATHER SERVICE KANSAS CITY/PLEASANT HILL MO
1100 PM CDT WED JUN 21 2017

KSZ040-057-103>105-MOZ028-029-037-043-220500-
...KANSAS CITY METROPOLITAN AREA...

CITY           SKY/WX    TMP DP  RH WIND       PRES   REMARKS
K.C. INTL      PTCLDY    78  65  63 S12       29.83R
K.C. DOWNTOWN  CLEAR     82  66  58 S13       29.82R
LEES SUMMIT    CLEAR     80  64  58 S17       29.85R
OLATHE - IXD   CLEAR     75  65  70 S9        29.85R
OLATHE - OJC   CLEAR     75  67  76 S10       29.85R
LAWRENCE       CLEAR     78  66  66 S8        29.82R

$$

MOZ001>008-011>017-020>025-030>033-038>040-044>046-053-054-220500-
...NORTHERN AND CENTRAL MISSOURI...

CITY           SKY/WX    TMP DP  RH WIND       PRES   REMARKS
ST. JOSEPH     CLEAR     81  66  60 S12       29.80R
MOSBY          CLEAR     79  63  57 S7        29.82S
WARRENSBURG    CLEAR     75  63  64 S5        29.85S
WHITEMAN AFB   CLEAR     76  67  71 S12       29.85R
CLINTON        CLEAR     75  64  69 S7        29.87S
SEDALIA        PTCLDY    76  68  76 S9        29.88R
WARSAW         NOT AVBL
CHILLICOTHE      N/A     81  64  56 S8        29.83R
KIRKSVILLE     CLEAR     72  66  81 S6        29.86R

$$

MOZ041-047>049-056>058-063>065-088>090-097-220500-
...EASTERN AND SOUTHERN MISSOURI...

CITY           SKY/WX    TMP DP  RH WIND       PRES   REMARKS
ST. LOUIS INTL MOCLDY    83  68  60 S10       29.93R
SPIRIT OF STL  CLOUDY    79  69  71 S3        29.91S
COLUMBIA       MOCLDY    77  67  71 S9        29.90R
JEFFERSON CITY CLOUDY    79  67  66 SE7       29.89R
ROLLA          CLOUDY    74  67  78 SE7       29.92S
OSAGE BEACH    PTCLDY    74  68  81 CALM      29.91S
SPRINGFIELD    PTCLDY    74  65  73 S7        29.90S
BRANSON        PTCLDY    73  66  78 SE9       29.91S
JOPLIN         PTCLDY    75  66  73 SE7       29.89R
WEST PLAINS    PTCLDY    74  68  81 SE5       29.94S

$$

IAZ060-094-KSZ022-034>040-054-083-096-NEZ052-066-093-220500-
...KANSAS...SOUTHEAST NEBRASKA AND IOWA...

CITY           SKY/WX    TMP DP  RH WIND       PRES   REMARKS
TOPEKA         CLEAR     77  65  66 S7        29.81R
MANHATTAN      CLEAR     82  61  48 S15       29.79R
EMPORIA        CLEAR     75  63  66 S15       29.84R
CHANUTE        CLEAR     75  63  66 S9        29.87R
WICHITA        CLOUDY    78  59  51 S16       29.83R
OMAHA          PTCLDY    85  59  41 S20G25    29.70R
LINCOLN        PTCLDY    83  59  44 S17G28    29.70R
FALLS CITY     CLEAR     80  63  55 S12       29.77R
LAMONI         CLEAR     77  65  66 S10       29.80R
DES MOINES     CLEAR     78  64  61 S10       29.76S

$$





USA.gov is the U.S. government's official web portal to all federal, state and local government web resources and services.